Location: Bjelajci
(45.0103°N, 16.1758°E)
Time: 19:15:45
(UTC+00:00)

Meteor 1-4 Rocket - Pass Details

Date: 14 July 2020
Orbit: 449 x 502 km, 81.2° (Epoch: 06 August)

Event Time Altitude Azimuth Distance (km) Brightness Sun altitude
Rises 00:16:16 0° 340° (NNW) 2,584 7.1 -21.2°
Reaches altitude 10° 00:18:32 10° 331° (NNW) 1,688 5.8 -21.1°
Enters shadow 00:21:23 31° 284° (WNW) 867 3.7 -20.9°
